Flag for Switzerland Weather past 2 weeks in Locarno, Ticino, Switzerland

Now
40 °F

Overcast.


Feels Like: 36 °F
Forecast: 16 / 24 °F
Wind: 6 mph from West

Location: Locarno-Monti

Current Time: Jan 29, 2015 at 8:35:07 PM

Latest Report: Jan 29, 2015 at 7:00 PM


Visibility: 11 mi

Pressure: 29.35 "Hg

Humidity: 54%

Dew point: 25 °F

Location of LocarnoLocation

Historic Weather in Locarno — Graph

°F

Locarno temperature yesterday

Maximum temperature yesterday: 47 °F (at 2:00 PM)
Minimum temperature yesterday: 35 °F (at 7:00 AM)
Average temperature yesterday: 40 °F

Past Weeks' High & Low Weather Summary

 TemperatureHumidityPressure
High55 °F (Jan 23, 2:00 PM)100% (Jan 16, 2:00 AM)30.30 "Hg (Jan 16, 2:00 AM)
Low32 °F (Jan 21, 6:00 PM)16% (Jan 25, 3:00 PM)29.35 "Hg (Jan 29, 6:00 PM)
Average40 °F67%29.99 "Hg
* Reported Jan 14 7:00 PM — Jan 29 7:00 PM, Locarno, Weather by CustomWeather, © 2014

Note: Actual official high and low records may vary slightly from our data, if they occured in-between our weather recording intervals... More about our weather records

Advertising

Locarno weather history for previous 24 hours

 ConditionsComfort  
Time TempWeatherWind HumidityBarometerVisibility
7:00 PM
Jan 29
40 °FOvercast.6 mph54%29.35 "Hg11 mi
6:00 PM41 °FQuite cool.5 mph55%29.35 "HgN/A
5:00 PM41 °FQuite cool.3 mph53%29.38 "HgN/A
4:00 PM42 °FOvercast.2 mph46%29.41 "Hg12 mi
3:00 PM42 °FQuite cool.1 mph47%29.44 "HgN/A
2:00 PM42 °FQuite cool.1 mph48%29.47 "HgN/A
1:00 PM42 °FPartly sunny.5 mph48%29.50 "Hg16 mi
12:00 PM40 °FQuite cool.6 mph52%29.58 "HgN/A
11:00 AM40 °FQuite cool.2 mph48%29.62 "HgN/A
10:00 AM39 °FOvercast.1 mph54%29.65 "Hg16 mi
9:00 AM36 °FChilly.2 mph61%29.66 "HgN/A
8:00 AM33 °FChilly.2 mph60%29.68 "HgN/A
7:00 AM34 °FPassing clouds.2 mph52%29.70 "Hg16 mi
6:00 AM34 °FChilly.No wind56%29.71 "HgN/A
5:00 AM34 °FChilly.1 mph56%29.75 "HgN/A
4:00 AM34 °FChilly.2 mph54%29.77 "HgN/A
3:00 AM34 °FChilly.2 mph54%29.80 "HgN/A
2:00 AM35 °FChilly.1 mph55%29.83 "HgN/A
1:00 AM35 °FChilly.1 mph53%29.86 "HgN/A
12:00 AM35 °FChilly.1 mph55%29.88 "HgN/A
11:00 PM
Jan 28
36 °FChilly.1 mph47%29.90 "HgN/A
10:00 PM37 °FChilly.2 mph49%29.93 "HgN/A
9:00 PM38 °FChilly.2 mph46%29.95 "HgN/A
8:00 PM39 °FChilly.1 mph43%29.94 "HgN/A
Weather by CustomWeather, © 2014

See weather overviewHow to use our weather pages